KC7O Weather Reports


Display with metric or nautical units.
time (UTC)temp
F
wind
direction
speed
MPH
gust
MPH
rain 1hr
in
rain 24hr
in
rain mn
in
humidity
%
barometer
mb
20260906150326 67 11 0.0 0.0 0.03 0.16 0.16 92 1012.1
20260906145825 67 11 0.0 0.0 0.04 0.16 0.16 91 1012.2
20260906145331 66 11 0.0 0.0 0.04 0.16 0.16 91 1012.4
20260906144828 66 11 0.0 0.0 0.04 0.16 0.16 90 1012.7
20260906144330 66 285 0.0 0.0 0.04 0.16 0.16 91 1012.7
20260906143828 66 285 0.0 2.0 0.04 0.16 0.16 91 1012.3
20260906143329 66 285 0.0 2.0 0.04 0.16 0.16 91 1012.2
20260906142832 66 270 0.0 1.0 0.03 0.15 0.15 91 1012.2
20260906142334 66 270 0.0 1.0 0.03 0.14 0.14 91 1012.2
20260906141834 66 95 0.0 3.0 0.03 0.14 0.14 90 1012.1
20260906141335 66 94 1.0 3.0 0.02 0.13 0.13 90 1012.1
20260906140853 67 143 0.0 1.0 0.02 0.13 0.13 92 1012.3
20260906140332 67 84 0.0 2.0 0.03 0.13 0.13 92 1012.5
20260906135832 67 30 0.0 3.0 0.03 0.12 0.12 91 1012.7
20260906135334 68 56 1.0 3.0 0.04 0.12 0.12 91 1012.8
20260906134835 68 134 0.0 1.0 0.04 0.12 0.12 93 1012.7
20260906134356 68 78 0.0 1.0 0.08 0.12 0.12 93 1012.6
20260906133833 68 344 0.0 1.0 0.10 0.12 0.12 92 1012.5
20260906133333 68 285 0.0 1.0 0.12 0.12 0.12 92 1012.4
20260906132834 67 285 0.0 0.0 0.11 0.11 0.12 91 1012.5
20260906132335 67 285 0.0 0.0 0.11 0.11 0.11 91 1012.4
20260906131856 66 285 0.0 0.0 0.11 0.11 0.11 89 1012.5
20260906131337 66 285 0.0 1.0 0.11 0.11 0.11 88 1012.5
20260906130836 66 285 0.0 1.0 0.11 0.11 0.11 87 1012.5
20260906130334 66 232 0.0 1.0 0.10 0.10 0.10 86 1012.5
20260906125854 66 5 0.0 3.0 0.09 0.09 0.09 84 1012.4
20260906125319 66 5 0.0 4.0 0.08 0.08 0.08 81 1012.3
20260906124836 67 292 0.0 5.0 0.07 0.07 0.07 77 1012.3
20260906124336 69 36 1.0 5.0 0.03 0.03 0.03 74 1012.5
20260906123837 71 285 0.0 0.0 0.02 0.02 0.02 71 1013.0
20260906123337 72 257 0.0 0.0 0.00 0.00 0.00 66 1012.5
20260906122835 72 146 0.0 0.0 0.00 0.00 0.00 62 1011.8
20260906122336 73 146 0.0 0.0 0.00 0.00 0.00 62 1011.5
20260906121858 73 146 0.0 0.0 0.00 0.00 0.00 58 1011.3
20260906121338 74 146 0.0 0.0 0.00 0.00 0.00 57 1011.1
20260906120856 74 146 0.0 0.0 0.00 0.00 0.00 54 1011.1
20260906120335 74 146 0.0 0.0 0.00 0.00 0.00 51 1011.0
20260906115835 74 146 0.0 0.0 0.00 0.00 0.00 52 1011.0
20260906115332 73 146 0.0 0.0 0.00 0.00 0.00 54 1011.0
20260906114830 73 146 0.0 0.0 0.00 0.00 0.00 55 1011.0
20260906114351 73 146 0.0 0.0 0.00 0.00 0.00 55 1011.0
20260906113830 73 146 0.0 0.0 0.00 0.00 0.00 55 1011.1
20260906113330 73 146 0.0 0.0 0.00 0.00 0.00 56 1011.1
20260906112849 73 146 0.0 0.0 0.00 0.00 0.00 55 1010.9
20260906112328 73 146 0.0 0.0 0.00 0.00 0.00 56 1011.1
20260906111831 73 146 0.0 0.0 0.00 0.00 0.00 56 1011.0
20260906111331 73 146 0.0 0.0 0.00 0.00 0.00 56 1011.0
20260906110828 73 146 0.0 0.0 0.00 0.00 0.00 55 1011.1
20260906110329 73 146 0.0 0.0 0.00 0.00 0.00 57 1011.1
20260906105831 73 146 0.0 0.0 0.00 0.00 0.00 60 1011.2
20260906105327 73 146 0.0 0.0 0.00 0.00 0.00 60 1011.2
20260906104827 73 149 0.0 0.0 0.00 0.00 0.00 63 1011.1
20260906104325 73 149 0.0 0.0 0.00 0.00 0.00 63 1011.0
20260906103825 73 149 0.0 0.0 0.00 0.00 0.00 62 1011.0
20260906103326 73 149 0.0 0.0 0.00 0.00 0.00 61 1011.0
20260906102845 73 149 0.0 0.0 0.00 0.00 0.00 61 1011.0
20260906102324 73 149 0.0 0.0 0.00 0.00 0.00 59 1011.0
20260906101824 74 149 0.0 0.0 0.00 0.00 0.00 57 1011.1
20260906101342 74 161 0.0 0.0 0.00 0.00 0.00 56 1011.2
20260906100819 74 161 0.0 0.0 0.00 0.00 0.00 55 1011.2
20260906100319 74 162 0.0 0.0 0.00 0.00 0.00 55 1011.1
20260906095820 74 161 0.0 0.0 0.00 0.00 0.00 55 1011.1
20260906095319 74 162 0.0 0.0 0.00 0.00 0.00 55 1011.0
20260906094838 74 161 0.0 0.0 0.00 0.00 0.00 55 1010.9
20260906094320 74 161 0.0 0.0 0.00 0.00 0.00 55 1011.0
20260906093820 74 161 0.0 0.0 0.00 0.00 0.00 55 1011.0
20260906093336 74 161 0.0 0.0 0.00 0.00 0.00 54 1011.0
20260906092837 74 162 0.0 0.0 0.00 0.00 0.00 54 1011.1
20260906092319 74 161 0.0 0.0 0.00 0.00 0.00 54 1011.1
20260906091837 74 161 0.0 0.0 0.00 0.00 0.00 54 1011.2
20260906091336 74 161 0.0 0.0 0.00 0.00 0.00 55 1011.2
20260906090833 74 161 0.0 0.0 0.00 0.00 0.00 55 1011.2
20260906090330 73 161 0.0 0.0 0.00 0.00 0.00 54 1011.2
20260906085848 73 162 0.0 0.0 0.00 0.00 0.00 55 1011.3
20260906085325 73 161 0.0 0.0 0.00 0.00 0.00 55 1011.3
20260906084824 72 161 0.0 0.0 0.00 0.00 0.00 57 1011.2
20260906084322 72 161 0.0 0.0 0.00 0.00 0.00 58 1011.2
20260906083824 72 161 0.0 0.0 0.00 0.00 0.00 58 1011.2
20260906083336 72 161 0.0 0.0 0.00 0.00 0.00 58 1011.2
20260906082835 72 161 0.0 0.0 0.00 0.00 0.00 57 1011.2
20260906082330 72 162 0.0 0.0 0.00 0.00 0.00 57 1011.3
20260906081826 72 161 0.0 0.0 0.00 0.00 0.00 56 1011.4
20260906081325 72 162 0.0 0.0 0.00 0.00 0.00 56 1011.5
20260906080824 72 161 0.0 0.0 0.00 0.00 0.00 56 1011.6
20260906080343 72 161 0.0 0.0 0.00 0.00 0.00 55 1011.6
20260906075839 72 161 0.0 0.0 0.00 0.00 0.00 57 1011.6
20260906075319 72 161 0.0 0.0 0.00 0.00 0.00 57 1011.6
20260906074838 72 161 0.0 0.0 0.00 0.00 0.00 58 1011.7
20260906074336 72 161 0.0 0.0 0.00 0.00 0.00 58 1011.6
20260906073833 72 161 0.0 0.0 0.00 0.00 0.00 58 1011.5
20260906073331 72 161 0.0 0.0 0.00 0.00 0.00 57 1011.6
20260906072828 73 161 0.0 0.0 0.00 0.00 0.00 57 1011.5
20260906072330 73 161 0.0 0.0 0.00 0.00 0.00 56 1011.5
20260906071829 73 162 0.0 0.0 0.00 0.00 0.00 56 1011.5
20260906071331 73 161 0.0 0.0 0.00 0.00 0.00 56 1011.5
20260906070826 73 162 0.0 0.0 0.00 0.00 0.00 56 1011.3
20260906070324 73 162 0.0 0.0 0.00 0.00 0.00 56 1011.3
20260906065821 73 161 0.0 0.0 0.00 0.00 0.00 56 1011.3
20260906065339 73 162 0.0 0.0 0.00 0.00 0.00 57 1011.3
20260906064856 72 162 0.0 0.0 0.00 0.00 0.00 57 1011.3
20260906064335 72 162 0.0 0.0 0.00 0.00 0.00 57 1011.3
20260906063835 72 162 0.0 0.0 0.00 0.00 0.00 58 1011.4
20260906063355 73 162 0.0 0.0 0.00 0.00 0.00 58 1011.5
20260906062853 73 162 0.0 0.0 0.00 0.00 0.00 58 1011.6
20260906062352 73 162 0.0 0.0 0.00 0.00 0.00 58 1011.5
20260906061831 73 162 0.0 0.0 0.00 0.00 0.00 58 1011.5
20260906061352 73 162 0.0 0.0 0.00 0.00 0.00 58 1011.4
20260906060847 73 162 0.0 0.0 0.00 0.00 0.00 58 1011.4
20260906060327 74 162 0.0 0.0 0.00 0.00 0.00 57 1011.4
20260906055825 74 162 0.0 0.0 0.00 0.00 0.00 57 1011.4
20260906055329 74 162 0.0 0.0 0.00 0.00 0.00 56 1011.4
20260906054827 74 162 0.0 0.0 0.00 0.00 0.00 56 1011.6
20260906054347 74 162 0.0 0.0 0.00 0.00 0.00 56 1011.6
20260906053821 74 162 0.0 0.0 0.00 0.00 0.00 56 1011.7
20260906053340 74 162 0.0 0.0 0.00 0.00 0.00 56 1011.7
20260906052839 74 162 0.0 0.0 0.00 0.00 0.00 56 1011.6
20260906051820 74 162 0.0 0.0 0.00 0.00 0.00 57 1011.6
20260906051339 74 162 0.0 0.0 0.00 0.00 0.00 56 1011.6
20260906050839 74 162 0.0 0.0 0.00 0.00 0.00 56 1011.6
20260906050319 75 162 0.0 0.0 0.00 0.00 0.00 56 1011.6
20260906045838 75 162 0.0 0.0 0.00 0.00 0.00 56 1011.5
20260906045319 75 162 0.0 0.0 0.00 0.00 0.00 56 1011.7
20260906044821 75 162 0.0 0.0 0.00 0.00 0.00 55 1011.6
20260906044319 75 162 0.0 0.0 0.00 0.00 0.00 55 1011.6
20260906043837 75 162 0.0 0.0 0.00 0.00 0.00 55 1011.6
20260906043334 76 162 0.0 0.0 0.00 0.00 0.00 54 1011.7
20260906042833 76 162 0.0 0.0 0.00 0.00 0.00 54 1011.7
20260906042332 76 162 0.0 0.0 0.00 0.00 0.00 53 1011.7
20260906041835 76 162 0.0 0.0 0.00 0.00 0.00 53 1011.7
20260906040854 76 162 0.0 0.0 0.00 0.00 0.00 53 1011.6
20260906040335 77 162 0.0 0.0 0.00 0.00 0.00 53 1011.5
20260906035853 77 162 0.0 0.0 0.00 0.00 0.00 51 1011.4
20260906035352 77 162 0.0 0.0 0.00 0.00 0.00 51 1011.5
20260906034827 78 162 0.0 0.0 0.00 0.00 0.00 51 1011.4
20260906034329 78 162 0.0 0.0 0.00 0.00 0.00 50 1011.3
20260906033829 78 162 0.0 0.0 0.00 0.00 0.00 50 1011.3
20260906033352 78 162 0.0 0.0 0.00 0.00 0.00 50 1011.4
20260906032831 79 162 0.0 0.0 0.00 0.00 0.00 49 1011.3
20260906032331 79 162 0.0 0.0 0.00 0.00 0.00 49 1011.2
20260906031833 79 162 0.0 0.0 0.00 0.00 0.00 49 1011.2
20260906031333 79 162 0.0 0.0 0.00 0.00 0.00 48 1011.1
20260906030834 80 162 0.0 0.0 0.00 0.00 0.00 48 1011.1
20260906030352 80 162 0.0 0.0 0.00 0.00 0.00 47 1011.1
20260906025828 80 162 0.0 0.0 0.00 0.00 0.00 47 1011.1
20260906025329 81 162 0.0 0.0 0.00 0.00 0.00 46 1011.1
20260906024828 81 162 0.0 0.0 0.00 0.00 0.00 45 1011.0
20260906024331 81 162 0.0 0.0 0.00 0.00 0.00 44 1011.0
20260906023837 82 160 0.0 0.0 0.00 0.00 0.00 45 1011.1
20260906023339 82 215 0.0 0.0 0.00 0.00 0.00 45 1011.2
20260906022857 82 243 0.0 0.0 0.00 0.00 0.00 45 1011.2
20260906022338 82 261 0.0 2.0 0.00 0.00 0.00 46 1011.1
20260906021838 83 172 0.0 2.0 0.00 0.00 0.00 46 1011.1
20260906021340 83 255 0.0 1.0 0.00 0.00 0.00 46 1011.0
20260906020839 83 240 0.0 1.0 0.00 0.00 0.00 46 1011.0
20260906020339 83 255 0.0 1.0 0.00 0.00 0.00 46 1011.0
20260906015820 84 251 0.0 1.0 0.00 0.00 0.00 46 1011.0
20260906015321 84 276 0.0 1.0 0.00 0.00 0.00 45 1010.9
20260906014839 84 270 0.0 1.0 0.00 0.00 0.00 46 1010.9
20260906014319 85 271 1.0 2.0 0.00 0.00 0.00 45 1010.8
20260906013820 85 139 0.0 3.0 0.00 0.00 0.00 45 1010.8
20260906013342 85 131 1.0 3.0 0.00 0.00 0.00 43 1010.8
20260906012820 86 274 1.0 2.0 0.00 0.00 0.00 40 1010.9
20260906012320 86 236 0.0 4.0 0.00 0.00 0.00 38 1010.9
20260906011821 87 155 2.0 4.0 0.00 0.00 0.00 29 1010.9
20260906011325 87 133 1.0 4.0 0.00 0.00 0.00 27 1010.7
20260906010848 87 118 0.0 3.0 0.00 0.00 0.00 26 1010.7
20260906010329 87 140 0.0 4.0 0.00 0.00 0.00 25 1010.7
20260906005829 87 139 1.0 4.0 0.00 0.00 0.00 24 1010.8
20260906005329 87 188 2.0 4.0 0.00 0.00 0.00 25 1010.8
20260906004850 87 184 2.0 4.0 0.00 0.00 0.00 24 1010.8
20260906004334 88 198 1.0 4.0 0.00 0.00 0.00 25 1010.8
20260906003836 88 188 0.0 4.0 0.00 0.00 0.00 25 1010.8
20260906003337 88 143 1.0 4.0 0.00 0.00 0.00 25 1010.7
20260906002836 88 167 1.0 3.0 0.00 0.00 0.00 25 1010.7
20260906002339 88 185 1.0 3.0 0.00 0.00 0.00 25 1010.7
20260906001820 88 217 1.0 3.0 0.00 0.00 0.00 25 1010.7
20260906001320 88 259 0.0 2.0 0.00 0.00 0.00 26 1010.7
20260906000824 88 178 0.0 2.0 0.00 0.00 0.00 26 1010.8
20260906000326 88 168 1.0 3.0 0.00 0.00 0.00 25 1010.7
20260905235830 89 229 1.0 3.0 0.00 0.00 0.00 25 1010.8
20260905235353 89 219 1.0 4.0 0.00 0.00 0.00 26 1010.7
20260905234837 89 146 1.0 4.0 0.00 0.00 0.00 26 1010.7
20260905234338 89 171 1.0 4.0 0.00 0.00 0.00 25 1010.6
20260905233839 89 139 0.0 4.0 0.00 0.00 0.00 26 1010.7
20260905233337 89 171 1.0 6.0 0.00 0.00 0.00 26 1010.8
20260905232834 88 201 2.0 7.0 0.00 0.00 0.00 26 1010.7
20260905232337 89 163 4.0 7.0 0.00 0.00 0.00 26 1010.7
20260905231839 89 204 2.0 6.0 0.00 0.00 0.00 26 1010.7
20260905231339 89 213 1.0 6.0 0.00 0.00 0.00 26 1010.7
20260905230841 89 200 2.0 6.0 0.00 0.00 0.00 26 1010.8
20260905230320 90 207 2.0 5.0 0.00 0.00 0.00 26 1010.8
20260905225819 90 233 2.0 4.0 0.00 0.00 0.00 28 1010.7
20260905225338 90 197 0.0 4.0 0.00 0.00 0.00 26 1010.7
20260905224821 90 238 0.0 5.0 0.00 0.00 0.00 28 1010.8
20260905224322 90 156 3.0 5.0 0.00 0.00 0.00 27 1010.9
20260905223828 90 83 1.0 4.0 0.00 0.00 0.00 26 1010.9
20260905223327 90 226 2.0 4.0 0.00 0.00 0.00 27 1011.1
20260905222829 90 166 1.0 6.0 0.00 0.00 0.00 27 1011.2
20260905222334 91 293 3.0 6.0 0.00 0.00 0.00 27 1011.1
20260905221337 91 160 2.0 5.0 0.00 0.00 0.00 27 1011.2
20260905220837 91 178 1.0 5.0 0.00 0.00 0.00 27 1011.2
20260905220320 90 210 1.0 5.0 0.00 0.00 0.00 27 1011.2
20260905215821 90 244 1.0 9.0 0.00 0.00 0.00 27 1011.3
20260905215322 91 218 4.0 9.0 0.00 0.00 0.00 25 1011.3
20260905214824 91 195 2.0 7.0 0.00 0.00 0.00 27 1011.4
20260905214324 91 204 3.0 7.0 0.00 0.00 0.00 27 1011.4
20260905213820 91 170 3.0 6.0 0.00 0.00 0.00 28 1011.4
20260905213321 91 263 2.0 5.0 0.00 0.00 0.00 27 1011.5
20260905212839 91 174 3.0 5.0 0.00 0.00 0.00 28 1011.6
20260905212320 91 159 2.0 5.0 0.00 0.00 0.00 29 1011.6
20260905211819 91 180 2.0 5.0 0.00 0.00 0.00 29 1011.6
20260905211338 91 151 2.0 7.0 0.00 0.00 0.00 29 1011.6
20260905210838 90 221 2.0 8.0 0.00 0.00 0.00 29 1011.6
20260905210337 90 231 3.0 8.0 0.00 0.00 0.00 30 1011.6
20260905205837 90 152 0.0 4.0 0.00 0.00 0.00 28 1011.7
20260905205319 90 157 1.0 5.0 0.00 0.00 0.00 28 1011.7
20260905204859 90 184 2.0 5.0 0.00 0.00 0.00 28 1011.9
20260905204338 90 175 2.0 7.0 0.00 0.00 0.00 29 1011.9
20260905203837 90 195 3.0 7.0 0.00 0.00 0.00 30 1012.0
20260905203319 89 251 3.0 6.0 0.00 0.00 0.00 30 1012.1
20260905202821 89 160 3.0 7.0 0.00 0.00 0.00 30 1012.1
20260905202321 89 197 3.0 7.0 0.00 0.00 0.00 30 1012.2
20260905201819 89 129 2.0 4.0 0.00 0.00 0.00 31 1012.2
20260905201358 88 153 1.0 8.0 0.00 0.00 0.00 31 1012.3
20260905200834 89 214 3.0 8.0 0.00 0.00 0.00 31 1012.4
20260905200320 88 134 2.0 6.0 0.00 0.00 0.00 31 1012.4
20260905195839 89 143 3.0 6.0 0.00 0.00 0.00 30 1012.4
20260905195320 88 150 2.0 5.0 0.00 0.00 0.00 30 1012.5
20260905194820 88 224 2.0 6.0 0.00 0.00 0.00 30 1012.6
20260905194322 88 230 2.0 6.0 0.00 0.00 0.00 30 1012.6
20260905193822 88 200 2.0 6.0 0.00 0.00 0.00 30 1012.6
20260905193320 87 143 3.0 6.0 0.00 0.00 0.00 30 1012.6
20260905192319 87 172 0.0 3.0 0.00 0.00 0.00 33 1012.7
20260905191859 86 219 1.0 5.0 0.00 0.00 0.00 34 1012.7
20260905191337 86 69 2.0 5.0 0.00 0.00 0.00 33 1012.8
20260905190838 87 141 2.0 5.0 0.00 0.00 0.00 33 1012.9
20260905190320 86 156 1.0 5.0 0.00 0.00 0.00 34 1013.0
20260905185839 86 213 3.0 5.0 0.00 0.00 0.00 35 1013.1
20260905185321 85 162 2.0 5.0 0.00 0.00 0.00 36 1013.1
20260905184843 86 139 2.0 5.0 0.00 0.00 0.00 35 1013.1
20260905184323 86 160 1.0 4.0 0.00 0.00 0.00 36 1013.1
20260905183840 86 127 2.0 4.0 0.00 0.00 0.00 37 1013.1
20260905183318 86 218 2.0 4.0 0.00 0.00 0.00 37 1013.3
20260905182823 85 160 2.0 4.0 0.00 0.00 0.00 37 1013.3
20260905182321 85 157 1.0 3.0 0.00 0.00 0.00 37 1013.3
20260905181820 84 148 1.0 4.0 0.00 0.00 0.00 36 1013.3
20260905181321 83 160 0.0 4.0 0.00 0.00 0.00 38 1013.4
20260905180842 83 153 1.0 5.0 0.00 0.00 0.00 38 1013.4
20260905180324 83 149 1.0 5.0 0.00 0.00 0.00 39 1013.3
20260905175824 82 156 2.0 5.0 0.00 0.00 0.00 39 1013.4
20260905175322 82 118 1.0 4.0 0.00 0.00 0.00 40 1013.3
20260905174820 82 96 1.0 4.0 0.00 0.00 0.00 41 1013.3
20260905174321 82 133 2.0 5.0 0.00 0.00 0.00 41 1013.2
20260905173842 81 153 2.0 5.0 0.00 0.00 0.00 41 1013.3
20260905173319 81 131 1.0 5.0 0.00 0.00 0.00 42 1013.2
20260905172337 80 136 1.0 4.0 0.00 0.00 0.00 46 1013.2
20260905171354 80 86 1.0 5.0 0.00 0.00 0.00 47 1013.1
20260905170834 79 169 0.0 0.0 0.00 0.00 0.00 48 1013.1
20260905170335 79 138 0.0 0.0 0.00 0.00 0.00 49 1013.2
20260905165831 78 153 0.0 0.0 0.00 0.00 0.00 48 1013.2
20260905165333 78 162 0.0 0.0 0.00 0.00 0.00 50 1013.2
20260905164837 77 207 0.0 0.0 0.00 0.00 0.00 50 1013.1
20260905164359 77 148 0.0 0.0 0.00 0.00 0.00 51 1013.1
20260905163858 77 243 0.0 0.0 0.00 0.00 0.00 51 1013.0
20260905163336 77 194 0.0 0.0 0.00 0.00 0.00 52 1013.0
20260905162835 76 177 0.0 0.0 0.00 0.00 0.00 52 1013.0
20260905161832 76 172 0.0 0.0 0.00 0.00 0.00 52 1012.9
20260905161330 75 136 0.0 0.0 0.00 0.00 0.00 53 1012.9
20260905160831 75 155 0.0 0.0 0.00 0.00 0.00 51 1012.9
20260905160332 76 158 0.0 0.0 0.00 0.00 0.00 52 1012.9
20260905155835 75 145 0.0 0.0 0.00 0.00 0.00 54 1012.9
20260905155334 75 185 0.0 0.0 0.00 0.00 0.00 55 1012.9
20260905154858 75 186 0.0 0.0 0.00 0.00 0.00 55 1012.9
20260905154336 75 160 0.0 0.0 0.00 0.00 0.00 53 1012.7
20260905153856 74 150 0.0 0.0 0.00 0.00 0.00 54 1012.7
20260905153335 74 215 0.0 0.0 0.00 0.00 0.00 56 1012.7
20260905152834 73 188 0.0 0.0 0.00 0.00 0.00 57 1012.6
20260905152319 73 157 0.0 0.0 0.00 0.00 0.00 59 1012.6
20260905151839 72 262 0.0 0.0 0.00 0.00 0.00 61 1012.5
20260905151339 71 169 0.0 0.0 0.00 0.00 0.00 63 1012.6
20260905150838 71 205 0.0 0.0 0.00 0.00 0.00 63 1012.6